Location: Brede
(50.9167°N, 0.6000°E)
Time: 22:10:20
(UTC+00:00)

Altair - Visible Passes

Search period start: 29 July 2021 00:00
Search period end: 08 August 2021 00:00
Orbit: 1501 x 1682 km, 47.2° (Epoch: 28 July)

Date Brightness Start Highest point End Pass type
(mag) Time Alt. Az. Time Alt. Az. Time Alt. Az.
29 Jul 8.5 01:14:50 20° SSE 01:18:31 25° SE 01:25:31 10° E visible
29 Jul 7.7 03:12:50 10° SW 03:21:45 55° SSE 03:30:35 10° E visible
30 Jul 8.5 00:50:46 20° SSE 00:53:30 23° SE 01:00:14 10° E visible
30 Jul 7.7 02:48:46 14° SW 02:56:39 53° SSE 03:05:26 10° E visible
31 Jul 8.6 00:26:40 20° SSE 00:28:29 21° SE 00:34:54 10° E visible
31 Jul 7.7 02:24:40 18° SW 02:31:33 51° SSE 02:40:17 10° E visible
01 Aug 8.6 00:02:32 19° SE 00:03:28 20° SE 00:09:33 10° E visible
01 Aug 7.8 02:00:31 22° SW 02:06:27 49° SSE 02:15:08 10° E visible
01 Aug 8.7 23:38:21 18° SE 23:38:29 18° SE 23:44:08 10° E visible
02 Aug 7.8 01:36:19 26° SSW 01:41:22 46° SSE 01:49:58 10° E visible
02 Aug 7.5 03:36:04 10° WSW 03:45:19 71° S 03:54:25 10° E visible
02 Aug 8.8 23:14:06 16° ESE 23:14:06 16° ESE 23:18:39 10° E visible
03 Aug 7.8 01:12:05 29° SSW 01:16:17 44° SSE 01:24:49 10° E visible
03 Aug 7.5 03:10:54 10° WSW 03:20:10 70° S 03:29:16 10° E visible
03 Aug 8.9 22:49:50 14° ESE 22:49:50 14° ESE 22:53:06 10° E visible
04 Aug 7.8 00:47:48 32° S 00:51:12 42° SSE 00:59:39 10° E visible
04 Aug 7.5 02:45:46 10° WSW 02:55:02 69° S 03:04:07 10° E visible
04 Aug 9.0 22:25:29 12° ESE 22:25:29 12° ESE 22:27:24 10° E visible
05 Aug 7.9 00:23:27 34° S 00:26:07 40° SE 00:34:28 10° E visible
05 Aug 7.4 02:21:25 13° WSW 02:29:54 68° SSE 02:38:59 10° E visible
05 Aug 9.1 22:01:04 10° ESE 22:01:04 10° ESE 22:01:28 10° ESE visible
05 Aug 7.9 23:59:02 34° S 00:01:03 38° SE 00:09:18 10° E visible
06 Aug 7.4 01:57:00 16° WSW 02:04:46 66° SSE 02:13:50 10° E visible
06 Aug 7.9 23:34:31 34° SSE 23:35:59 35° SE 23:44:06 10° E visible
07 Aug 7.4 01:32:28 19° WSW 01:39:38 65° SSE 01:48:43 10° E visible
07 Aug 7.5 03:34:38 10° W 03:43:54 69° S 03:52:59 10° ESE visible
07 Aug 8.0 23:09:50 33° SSE 23:10:55 33° SE 23:18:54 10° E visible
